Showing default

BROKKER-2 ODIN, 63102

Orbit data source: Space-Track

BROKKER-2 ODIN, 63102 is a payload satellite owned by AstroForge (US) in HEO that was launched on Thu, 27 Feb 2025 UTC via an FALCON 9 launch vehicle from the Air Force Eastern Test Range (AFETR). Payload-class satellites include a variety of spacecraft equipped with specific instruments for various scientific and technological missions. These include communications satellites like Starlink; space stations such as the ISS; scientific satellites like the Hubble; Earth observation satellites from companies like Planet Labs, Umbra, and HawkEye 360; GPS; miniature CubeSats for education and research; and military/defense satellites.

Loading next visibility...
Identifier
63102, 2025-038D
Orbit
HEO
Last TLE update
2 months ago
Origin
Manufacturer
AstroForge
Mission
Non-operational Commercial Planetary
Bus & Motor
ODIN, AOCS
Mass
105 kg wet, 77 kg dry
Launch date (UTC)
2025-02-27 (2 months ago)
Launch vehicle
FALCON 9
Launch site
Air Force Eastern Test Range (AFETR)
Object type
Payload
Rocket body
Debris
Shape & HBR
Box + 2 Pan, 3 m
Radar Cross Section
1.176 m²

Expand to show TLE details & history

TLE from 2 months ago
0 BROKKER-2 ODIN
1 63102U 25038D   25058.03746186 -.00007054  00000-0  00000-0 0  9992
2 63102  28.5200 357.2438 9653600 216.4100   0.0142  0.10463308    08
Epoch: 2025-02-27T00:53Z
Definitive object data (Epoch: 2025-02-27T00:53:56.704Z)
Latitude
-2.41715°
Longitude
-177.27109°
Altitude
51,153.232 km
Speed
3.429 km/s
True Right ascension
23h 33m 20s
True Declination
-2° 24' 55"
Sunlit
Object was in daylight at TLE epoch
Visualization TLE readout
Latitude
13.53893°
Longitude
-148.39918°
Altitude
226,274.673 km
Speed
1.154 km/s
Apparent Right ascension
01h 32m 14s
Apparent Declination
12° 45' 11"
Sunlit
Object is in daylight
Visualization observer readout
Local Sidereal Time
22:38:09
Azimuth
112.957° SE
Elevation
43.164°
Doppler factor
1
Orbital elements
Apogee altitude
367,518.128 km
Perigee altitude
211.885 km
Semi-major axis
190,243.144 km
Eccentricity
0.96536
Inclination
28.52°
RAAN
357.2438°
Arg. of periapsis
216.41°
True anomaly
3.0537°
Mean anomaly
0.0142°
Eccentric anomaly
0.4055°
Mean motion
0.02616 °/min
BSTAR
Unknown
Orbital period
13763.31 mins
Loading maneuver chart data...
Loading SW <> Apogee altitude chart data...
Loading historical data...
Loading historical data...
Loading historical data...
Loading historical data...
Loading historical data...
Loading historical data...
Loading historical data...
Other satellites on launch #38 in the year 2025 (2025-02-27 UTC)

BROKKER-2 ODIN Visibility forecast

Observer location: undefined°, undefined°

Span
Click to sort rows by Start time (UTC) header in descending order
Start Az.
Max El. time (UTC)
Max El. Az.
Max El.
End time (UTC)
End Az.
523 mins2025-05-06 14:39:47.907Z112.96° SE2025-05-06 17:33:47.907Z180.748° SSW41.753°2025-05-06 23:22:47.907Z279.01° WNW
168 mins2025-05-07 11:51:47.907Z79.984° E2025-05-07 14:39:47.907Z108.618° ESE33.989°2025-05-07 14:39:47.907Z108.618° ESE
|